Bridgwater

United Kingdom     51˚07′33″N   2˚59′58″W
temp.,
°C
wind,
m/s
gust,
m/s
humid.,
%
clouds,
%
prec.,
mm/h
press.,
hPa
HPBL,
m
29 november, sun
sun2900:00+7˚ene3394100 0.0 1022101
03:00+7˚ene2391100 0.0 1023110
06:00+6˚ene3392100 0.0 1024118
09:00+7˚ene2393100 0.0 1025103
12:00+9˚ene128495 0.0 1026238
15:00+9˚n118576 0.0 102668
18:00+8˚e008666 0.0 102752
21:00+7˚s11850 0.0 102745
30 november, mon
mon3000:00+8˚sw12830 0.0 102883
03:00+9˚w348796 0.0 1027144
06:00+9˚w468797 0.0 1027226
09:00+10˚w478877 0.0 1027305
12:00+10˚wnw8118989 0.0 1027668
15:00+10˚wnw71187100 0.1 1025697
18:00+10˚wnw101490100 0.6 1024772
21:00+10˚wnw101591100 0.3 1023681
1 december, tue
tue100:00+11˚wnw81290100 0.4 1023592
03:00+8˚n51083100 0.2 1024591
06:00+6˚n5878100 0.2 1025420
09:00+6˚nne5875100 0.0 1026503
12:00+7˚n6970100 0.0 1027832
15:00+7˚n586970 0.0 1026589
18:00+6˚n457266 0.0 1026312
21:00+5˚n34753 0.0 1026225
2 december, wed
wed200:00+5˚n227640 0.0 1025161
03:00+6˚se117188 0.0 1023136
06:00+7˚w247093 0.0 1021277
09:00+7˚wnw238099 0.0 1020186
12:00+9˚w258596 0.0 1019428
15:00+9˚wnw358897 0.1 1016261
18:00+8˚nw578398 0.3 1016334
21:00+6˚nnw467592 0.0 1015449
3 december, thu
thu300:00+6˚n127496 0.0 1012270
03:00+5˚se3377100 0.0 1008137
06:00+4˚sse3479100 0.0 1004176
09:00+4˚se4581100 0.0 1000184
12:00+6˚se5788100 0.8 996433
15:00+6˚e4792100 3.4 992369
18:00+7˚se4787100 3.5 989271
21:00+7˚ese61394100 5.8 986762